Location: Hopville
(44.8032°N, 123.1329°W)
Time: 03:47:52
(UTC+00:00)

SL-4 R/B - Pass Details

Date: 24 January 2021
Orbit: 427 x 664 km, 51.6° (Epoch: 26 February)

Event Time Altitude Azimuth Distance (km) Brightness Sun altitude
Exits shadow 14:47:03 10° 261° (W) 1,664 3.9 -9.5°
Maximum altitude 14:50:43 51° 339° (NNW) 658 2.2 -8.9°
Drops below altitude 10° 14:54:47 10° 56° (NE) 1,832 5.2 -8.2°
Sets 14:57:11 0° 61° (ENE) 2,775 6.3 -7.8°
